Location: Helsinki
(60.1699°N, 24.9384°E)
Time: 23:05:45
(UTC+02:00)

A-11 Canister half - Pass Details

Date: 02 November 2020
Orbit: 1516 x 1684 km, 47.2° (Epoch: 26 November)

Event Time Altitude Azimuth Distance (km) Brightness Sun altitude
Rises 01:16:29 0° 276° (W) 4,902 - -42.7°
Reaches altitude 10° 01:20:29 10° 263° (W) 3,890 - -42.5°
Maximum altitude 01:27:37 23° 217° (SW) 2,928 - -42.1°
Drops below altitude 10° 01:34:35 10° 170° (S) 3,784 - -41.7°
Sets 01:38:25 0° 157° (SSE) 4,738 - -41.5°
